Location: Biltmore Gardens
(41.6070°N, 83.4666°W)
Time: 09:56:32
(UTC+00:00)

Cosmos 2344 - Pass Details

Date: 23 October 2020
Orbit: 1246 x 2997 km, 63.3° (Epoch: 25 November)

Event Time Altitude Azimuth Distance (km) Brightness Sun altitude
Exits shadow 07:45:21 25° 97° (E) 2,292 5.1 -46.1°
Drops below altitude 10° 07:50:15 10° 57° (ENE) 3,275 6.3 -45.3°
Sets 07:53:38 0° 45° (NE) 4,345 7.1 -44.7°
